| time (UTC) | temp F | wind direction | speed knots | gust knots | rain 1hr in | rain 24hr in | rain mn in | humidity % | barometer mb |
| 20260508054902 | 71 | 61 | 0.9 | 1.7 | 0.00 | 0.00 | 0.00 | 29 | 1013.8 |
| 20260508054403 | 72 | 61 | 0.0 | 0.9 | 0.00 | 0.00 | 0.00 | 28 | 1013.9 |
| 20260508053903 | 72 | 61 | 0.0 | 0.9 | 0.00 | 0.00 | 0.00 | 28 | 1013.9 |
| 20260508053403 | 73 | 61 | 0.0 | 0.9 | 0.00 | 0.00 | 0.00 | 26 | 1013.8 |
| 20260508052902 | 73 | 61 | 0.0 | 1.7 | 0.00 | 0.00 | 0.00 | 26 | 1013.7 |
| 20260508052404 | 73 | 61 | 0.0 | 1.7 | 0.00 | 0.00 | 0.00 | 25 | 1013.7 |
| 20260508051903 | 73 | 64 | 0.9 | 1.7 | 0.00 | 0.00 | 0.00 | 25 | 1013.7 |
| 20260508051402 | 73 | 67 | 0.9 | 1.7 | 0.00 | 0.00 | 0.00 | 26 | 1013.7 |
| 20260508045402 | 75 | 61 | 0.0 | 1.7 | 0.00 | 0.00 | 0.00 | 25 | 1013.3 |
| 20260508044402 | 77 | 70 | 0.9 | 2.6 | 0.00 | 0.00 | 0.00 | 22 | 1013.2 |
| 20260508043903 | 78 | 82 | 0.9 | 2.6 | 0.00 | 0.00 | 0.00 | 20 | 1013.2 |
| 20260508042903 | 78 | 163 | 0.0 | 4.3 | 0.00 | 0.00 | 0.00 | 19 | 1013.0 |
| 20260508042402 | 79 | 201 | 1.7 | 7.0 | 0.00 | 0.00 | 0.00 | 19 | 1013.0 |
| 20260508041902 | 79 | 241 | 1.7 | 8.7 | 0.00 | 0.00 | 0.00 | 19 | 1012.9 |
| 20260508041404 | 79 | 224 | 3.5 | 8.7 | 0.00 | 0.00 | 0.00 | 19 | 1012.8 |
| 20260508040403 | 79 | 238 | 4.3 | 8.7 | 0.00 | 0.00 | 0.00 | 19 | 1012.8 |
| 20260508035904 | 79 | 228 | 2.6 | 7.0 | 0.00 | 0.00 | 0.00 | 18 | 1012.6 |
| 20260508035403 | 79 | 244 | 2.6 | 7.0 | 0.00 | 0.00 | 0.00 | 18 | 1012.6 |
| 20260508034902 | 80 | 235 | 3.5 | 7.0 | 0.00 | 0.00 | 0.00 | 18 | 1012.6 |
| 20260508034403 | 80 | 224 | 2.6 | 7.0 | 0.00 | 0.00 | 0.00 | 18 | 1012.5 |
| 20260508033902 | 80 | 221 | 3.5 | 7.8 | 0.00 | 0.00 | 0.00 | 18 | 1012.3 |
| 20260508033402 | 80 | 218 | 0.9 | 7.8 | 0.00 | 0.00 | 0.00 | 18 | 1012.3 |
| 20260508032904 | 80 | 258 | 0.0 | 4.3 | 0.00 | 0.00 | 0.00 | 17 | 1012.0 |
| 20260508032403 | 80 | 200 | 1.7 | 4.3 | 0.00 | 0.00 | 0.00 | 17 | 1011.9 |
| 20260508031903 | 80 | 169 | 0.9 | 6.1 | 0.00 | 0.00 | 0.00 | 17 | 1011.9 |
| 20260508031403 | 80 | 219 | 0.9 | 6.1 | 0.00 | 0.00 | 0.00 | 17 | 1011.8 |
| 20260508025902 | 81 | 235 | 1.7 | 5.2 | 0.00 | 0.00 | 0.00 | 16 | 1011.4 |
| 20260508025403 | 82 | 248 | 0.9 | 7.0 | 0.00 | 0.00 | 0.00 | 16 | 1011.3 |
| 20260508024903 | 82 | 240 | 2.6 | 7.0 | 0.00 | 0.00 | 0.00 | 15 | 1011.2 |
| 20260508023903 | 83 | 248 | 1.7 | 6.1 | 0.00 | 0.00 | 0.00 | 12 | 1011.0 |
| 20260508023402 | 83 | 221 | 0.9 | 6.1 | 0.00 | 0.00 | 0.00 | 12 | 1010.8 |
| 20260508022903 | 83 | 247 | 1.7 | 6.1 | 0.00 | 0.00 | 0.00 | 12 | 1010.7 |
| 20260508022402 | 84 | 232 | 2.6 | 6.1 | 0.00 | 0.00 | 0.00 | 12 | 1010.6 |
| 20260508021403 | 84 | 233 | 2.6 | 7.0 | 0.00 | 0.00 | 0.00 | 12 | 1010.5 |
| 20260508020903 | 85 | 219 | 0.9 | 7.0 | 0.00 | 0.00 | 0.00 | 12 | 1010.4 |
| 20260508020403 | 85 | 223 | 2.6 | 7.0 | 0.00 | 0.00 | 0.00 | 12 | 1010.4 |
| 20260508015903 | 85 | 239 | 1.7 | 7.0 | 0.00 | 0.00 | 0.00 | 12 | 1010.2 |
| 20260508015403 | 85 | 240 | 2.6 | 7.0 | 0.00 | 0.00 | 0.00 | 12 | 1010.2 |
| 20260508014903 | 86 | 217 | 1.7 | 8.7 | 0.00 | 0.00 | 0.00 | 12 | 1010.1 |
| 20260508014403 | 86 | 208 | 2.6 | 8.7 | 0.00 | 0.00 | 0.00 | 11 | 1010.1 |
| 20260508013403 | 86 | 188 | 1.7 | 6.1 | 0.00 | 0.00 | 0.00 | 11 | 1010.0 |
| 20260508012903 | 87 | 216 | 2.6 | 6.1 | 0.00 | 0.00 | 0.00 | 11 | 1009.9 |
| 20260508012403 | 87 | 204 | 0.9 | 7.0 | 0.00 | 0.00 | 0.00 | 11 | 1009.9 |
| 20260508011902 | 87 | 193 | 2.6 | 7.8 | 0.00 | 0.00 | 0.00 | 11 | 1009.9 |
| 20260508011403 | 87 | 259 | 1.7 | 7.8 | 0.00 | 0.00 | 0.00 | 11 | 1009.9 |
| 20260508010903 | 87 | 275 | 1.7 | 8.7 | 0.00 | 0.00 | 0.00 | 11 | 1009.9 |
| 20260508010403 | 88 | 224 | 2.6 | 10.4 | 0.00 | 0.00 | 0.00 | 11 | 1009.9 |
| 20260508005903 | 88 | 191 | 2.6 | 10.4 | 0.00 | 0.00 | 0.00 | 11 | 1009.7 |
| 20260508005402 | 88 | 224 | 4.3 | 10.4 | 0.00 | 0.00 | 0.00 | 11 | 1009.6 |
| 20260508004903 | 88 | 214 | 2.6 | 7.0 | 0.00 | 0.00 | 0.00 | 11 | 1009.6 |
| 20260508004402 | 88 | 293 | 1.7 | 7.0 | 0.00 | 0.00 | 0.00 | 11 | 1009.5 |
| 20260508003903 | 89 | 260 | 2.6 | 8.7 | 0.00 | 0.00 | 0.00 | 11 | 1009.6 |
| 20260508003403 | 89 | 337 | 1.7 | 8.7 | 0.00 | 0.00 | 0.00 | 11 | 1009.5 |
| 20260508002902 | 89 | 248 | 4.3 | 8.7 | 0.00 | 0.00 | 0.00 | 11 | 1009.5 |
| 20260508001403 | 89 | 84 | 2.6 | 7.8 | 0.00 | 0.00 | 0.00 | 11 | 1009.5 |
| 20260508000405 | 90 | 305 | 3.5 | 7.8 | 0.00 | 0.00 | 0.00 | 11 | 1009.6 |
| 20260507235402 | 90 | 252 | 1.7 | 6.1 | 0.00 | 0.00 | 0.00 | 11 | 1009.4 |
| 20260507234903 | 90 | 223 | 2.6 | 7.0 | 0.00 | 0.00 | 0.00 | 11 | 1009.4 |
| 20260507234403 | 90 | 268 | 1.7 | 8.7 | 0.00 | 0.00 | 0.00 | 11 | 1009.4 |
| 20260507233903 | 90 | 198 | 2.6 | 8.7 | 0.00 | 0.00 | 0.00 | 12 | 1009.4 |
| 20260507233402 | 90 | 296 | 3.5 | 8.7 | 0.00 | 0.00 | 0.00 | 12 | 1009.4 |
| 20260507232903 | 90 | 190 | 1.7 | 8.7 | 0.00 | 0.00 | 0.00 | 12 | 1009.4 |
| 20260507232403 | 90 | 257 | 0.9 | 2.6 | 0.00 | 0.00 | 0.00 | 12 | 1009.6 |
| 20260507231903 | 90 | 23 | 1.7 | 8.7 | 0.00 | 0.00 | 0.00 | 12 | 1009.5 |
| 20260507231403 | 91 | 58 | 1.7 | 8.7 | 0.00 | 0.00 | 0.00 | 12 | 1009.6 |
| 20260507230903 | 91 | 323 | 2.6 | 8.7 | 0.00 | 0.00 | 0.00 | 12 | 1009.6 |
| 20260507230403 | 91 | 308 | 2.6 | 10.4 | 0.00 | 0.00 | 0.00 | 12 | 1009.6 |
| 20260507225902 | 91 | 236 | 5.2 | 10.4 | 0.00 | 0.00 | 0.00 | 11 | 1009.5 |
| 20260507225403 | 91 | 209 | 4.3 | 13.0 | 0.00 | 0.00 | 0.00 | 12 | 1009.6 |
| 20260507224903 | 92 | 217 | 2.6 | 13.0 | 0.00 | 0.00 | 0.00 | 12 | 1009.8 |
| 20260507224403 | 92 | 208 | 1.7 | 4.3 | 0.00 | 0.00 | 0.00 | 12 | 1009.6 |
| 20260507223903 | 91 | 345 | 1.7 | 8.7 | 0.00 | 0.00 | 0.00 | 12 | 1009.7 |
| 20260507223403 | 92 | 207 | 1.7 | 8.7 | 0.00 | 0.00 | 0.00 | 11 | 1009.7 |
| 20260507222903 | 92 | 221 | 2.6 | 8.7 | 0.00 | 0.00 | 0.00 | 12 | 1009.8 |
| 20260507222403 | 92 | 86 | 2.6 | 10.4 | 0.00 | 0.00 | 0.00 | 12 | 1009.9 |
| 20260507221903 | 92 | 276 | 1.7 | 10.4 | 0.00 | 0.00 | 0.00 | 12 | 1010.0 |
| 20260507221403 | 93 | 200 | 2.6 | 7.8 | 0.00 | 0.00 | 0.00 | 11 | 1010.0 |
| 20260507220903 | 93 | 267 | 1.7 | 7.8 | 0.00 | 0.00 | 0.00 | 11 | 1010.1 |
| 20260507220403 | 92 | 29 | 1.7 | 7.8 | 0.00 | 0.00 | 0.00 | 12 | 1010.2 |
| 20260507215902 | 91 | 13 | 4.3 | 7.8 | 0.00 | 0.00 | 0.00 | 12 | 1010.1 |
| 20260507215402 | 92 | 91 | 1.7 | 7.0 | 0.00 | 0.00 | 0.00 | 12 | 1010.3 |
| 20260507214904 | 91 | 222 | 2.6 | 7.0 | 0.00 | 0.00 | 0.00 | 12 | 1010.2 |
| 20260507214403 | 90 | 191 | 1.7 | 6.1 | 0.00 | 0.00 | 0.00 | 13 | 1010.3 |
| 20260507213903 | 90 | 229 | 2.6 | 7.8 | 0.00 | 0.00 | 0.00 | 13 | 1010.4 |
| 20260507213403 | 90 | 234 | 1.7 | 8.7 | 0.00 | 0.00 | 0.00 | 13 | 1010.4 |
| 20260507212902 | 92 | 229 | 2.6 | 8.7 | 0.00 | 0.00 | 0.00 | 12 | 1010.6 |
| 20260507212403 | 92 | 234 | 2.6 | 7.0 | 0.00 | 0.00 | 0.00 | 12 | 1010.7 |
| 20260507211903 | 92 | 71 | 1.7 | 7.8 | 0.00 | 0.00 | 0.00 | 12 | 1010.7 |
| 20260507211403 | 92 | 187 | 2.6 | 7.8 | 0.00 | 0.00 | 0.00 | 13 | 1010.9 |
| 20260507210902 | 92 | 226 | 2.6 | 7.8 | 0.00 | 0.00 | 0.00 | 12 | 1010.9 |
| 20260507210402 | 92 | 2 | 3.5 | 10.4 | 0.00 | 0.00 | 0.00 | 12 | 1011.1 |
| 20260507205903 | 91 | 314 | 2.6 | 10.4 | 0.00 | 0.00 | 0.00 | 12 | 1011.0 |
| 20260507205402 | 91 | 197 | 4.3 | 7.8 | 0.00 | 0.00 | 0.00 | 11 | 1011.0 |
| 20260507204404 | 90 | 217 | 2.6 | 8.7 | 0.00 | 0.00 | 0.00 | 11 | 1011.1 |
| 20260507203903 | 90 | 236 | 2.6 | 6.1 | 0.00 | 0.00 | 0.00 | 11 | 1011.3 |
| 20260507203403 | 90 | 240 | 1.7 | 7.0 | 0.00 | 0.00 | 0.00 | 11 | 1011.4 |
| 20260507202904 | 91 | 238 | 2.6 | 10.4 | 0.00 | 0.00 | 0.00 | 11 | 1011.4 |
| 20260507202402 | 92 | 215 | 3.5 | 10.4 | 0.00 | 0.00 | 0.00 | 11 | 1011.4 |
| 20260507201902 | 90 | 2 | 1.7 | 8.7 | 0.00 | 0.00 | 0.00 | 11 | 1011.5 |
| 20260507201403 | 91 | 90 | 1.7 | 8.7 | 0.00 | 0.00 | 0.00 | 11 | 1011.7 |
| 20260507200904 | 90 | 244 | 1.7 | 7.8 | 0.00 | 0.00 | 0.00 | 11 | 1011.6 |
| 20260507195903 | 90 | 201 | 1.7 | 8.7 | 0.00 | 0.00 | 0.00 | 10 | 1011.7 |
| 20260507195403 | 90 | 228 | 3.5 | 8.7 | 0.00 | 0.00 | 0.00 | 11 | 1011.8 |
| 20260507193903 | 90 | 226 | 2.6 | 5.2 | 0.00 | 0.00 | 0.00 | 11 | 1012.0 |
| 20260507192903 | 90 | 242 | 0.9 | 2.6 | 0.00 | 0.00 | 0.00 | 11 | 1012.2 |
| 20260507192403 | 89 | 269 | 0.9 | 2.6 | 0.00 | 0.00 | 0.00 | 12 | 1012.3 |
| 20260507191903 | 89 | 337 | 0.9 | 2.6 | 0.00 | 0.00 | 0.00 | 12 | 1012.4 |
| 20260507191403 | 89 | 323 | 0.9 | 4.3 | 0.00 | 0.00 | 0.00 | 12 | 1012.5 |
| 20260507190903 | 89 | 355 | 1.7 | 6.1 | 0.00 | 0.00 | 0.00 | 12 | 1012.7 |
| 20260507190403 | 88 | 253 | 1.7 | 6.1 | 0.00 | 0.00 | 0.00 | 13 | 1012.8 |
| 20260507185903 | 88 | 279 | 1.7 | 4.3 | 0.00 | 0.00 | 0.00 | 13 | 1012.6 |
| 20260507185403 | 88 | 7 | 1.7 | 4.3 | 0.00 | 0.00 | 0.00 | 14 | 1012.7 |
| 20260507184903 | 87 | 67 | 1.7 | 4.3 | 0.00 | 0.00 | 0.00 | 14 | 1012.8 |
| 20260507183903 | 85 | 219 | 0.9 | 4.3 | 0.00 | 0.00 | 0.00 | 14 | 1012.9 |
| 20260507183403 | 86 | 223 | 1.7 | 4.3 | 0.00 | 0.00 | 0.00 | 14 | 1013.0 |
| 20260507182403 | 85 | 214 | 1.7 | 2.6 | 0.00 | 0.00 | 0.00 | 14 | 1013.1 |
| 20260507181903 | 85 | 222 | 0.9 | 4.3 | 0.00 | 0.00 | 0.00 | 15 | 1013.3 |
| 20260507181403 | 83 | 217 | 1.7 | 4.3 | 0.00 | 0.00 | 0.00 | 15 | 1013.4 |
| 20260507180903 | 83 | 215 | 0.9 | 2.6 | 0.00 | 0.00 | 0.00 | 15 | 1013.5 |
| 20260507180403 | 82 | 94 | 0.0 | 2.6 | 0.00 | 0.00 | 0.00 | 14 | 1013.6 |
| 20260507175902 | 83 | 124 | 1.7 | 2.6 | 0.00 | 0.00 | 0.00 | 16 | 1013.4 |
| 20260507175403 | 83 | 63 | 1.7 | 2.6 | 0.00 | 0.00 | 0.00 | 17 | 1013.5 |
| 20260507174903 | 82 | 55 | 0.9 | 2.6 | 0.00 | 0.00 | 0.00 | 18 | 1013.5 |
| 20260507174403 | 83 | 349 | 1.7 | 2.6 | 0.00 | 0.00 | 0.00 | 18 | 1013.6 |
| 20260507173903 | 83 | 329 | 1.7 | 4.3 | 0.00 | 0.00 | 0.00 | 18 | 1013.6 |
| 20260507173403 | 82 | 321 | 1.7 | 4.3 | 0.00 | 0.00 | 0.00 | 19 | 1013.8 |
| 20260507172904 | 82 | 56 | 0.9 | 2.6 | 0.00 | 0.00 | 0.00 | 19 | 1013.8 |
| 20260507172403 | 81 | 58 | 0.9 | 2.6 | 0.00 | 0.00 | 0.00 | 20 | 1013.9 |
| 20260507171902 | 80 | 0 | 0.0 | 2.6 | 0.00 | 0.00 | 0.00 | 20 | 1014.0 |
| 20260507171403 | 80 | 209 | 0.0 | 2.6 | 0.00 | 0.00 | 0.00 | 20 | 1014.0 |
| 20260507170403 | 79 | 252 | 0.9 | 2.6 | 0.00 | 0.00 | 0.00 | 20 | 1014.0 |
| 20260507165903 | 79 | 251 | 0.9 | 2.6 | 0.00 | 0.00 | 0.00 | 20 | 1014.1 |
| 20260507165403 | 78 | 40 | 0.9 | 2.6 | 0.00 | 0.00 | 0.00 | 21 | 1014.1 |
| 20260507164903 | 77 | 147 | 0.9 | 2.6 | 0.00 | 0.00 | 0.00 | 22 | 1014.2 |
| 20260507164403 | 77 | 5 | 0.9 | 1.7 | 0.00 | 0.00 | 0.00 | 21 | 1014.2 |
| 20260507163403 | 76 | 333 | 0.9 | 2.6 | 0.00 | 0.00 | 0.00 | 22 | 1014.2 |
| 20260507162903 | 76 | 221 | 0.0 | 2.6 | 0.00 | 0.00 | 0.00 | 22 | 1014.4 |
| 20260507162403 | 75 | 152 | 0.9 | 7.0 | 0.00 | 0.00 | 0.00 | 23 | 1014.3 |
| 20260507161904 | 75 | 128 | 2.6 | 7.0 | 0.00 | 0.00 | 0.00 | 24 | 1014.4 |
| 20260507161403 | 75 | 111 | 0.9 | 2.6 | 0.00 | 0.00 | 0.00 | 24 | 1014.4 |
| 20260507160903 | 74 | 140 | 0.9 | 2.6 | 0.00 | 0.00 | 0.00 | 24 | 1014.4 |
| 20260507160403 | 74 | 195 | 0.9 | 2.6 | 0.00 | 0.00 | 0.00 | 25 | 1014.6 |
| 20260507155903 | 74 | 168 | 0.9 | 2.6 | 0.00 | 0.00 | 0.00 | 24 | 1014.6 |
| 20260507155403 | 74 | 148 | 1.7 | 4.3 | 0.00 | 0.00 | 0.00 | 24 | 1014.7 |
| 20260507153903 | 72 | 143 | 0.9 | 4.3 | 0.00 | 0.00 | 0.00 | 25 | 1014.7 |
| 20260507152903 | 71 | 140 | 1.7 | 6.1 | 0.00 | 0.00 | 0.00 | 26 | 1014.7 |
| 20260507152402 | 71 | 116 | 1.7 | 2.6 | 0.00 | 0.00 | 0.00 | 26 | 1014.7 |
| 20260507151902 | 70 | 157 | 0.9 | 4.3 | 0.00 | 0.00 | 0.00 | 28 | 1014.7 |
| 20260507151404 | 69 | 120 | 0.9 | 6.1 | 0.00 | 0.00 | 0.00 | 28 | 1014.8 |
| 20260507150903 | 69 | 136 | 2.6 | 6.1 | 0.00 | 0.00 | 0.00 | 28 | 1014.8 |
| 20260507150404 | 69 | 108 | 0.9 | 2.6 | 0.00 | 0.00 | 0.00 | 29 | 1014.8 |
| 20260507144403 | 67 | 101 | 1.7 | 2.6 | 0.00 | 0.00 | 0.00 | 31 | 1014.8 |
| 20260507143903 | 66 | 116 | 0.9 | 2.6 | 0.00 | 0.00 | 0.00 | 32 | 1014.9 |
| 20260507143403 | 66 | 148 | 0.9 | 2.6 | 0.00 | 0.00 | 0.00 | 32 | 1014.9 |
| 20260507142903 | 66 | 140 | 1.7 | 2.6 | 0.00 | 0.00 | 0.00 | 31 | 1014.9 |
| 20260507142403 | 65 | 58 | 0.9 | 2.6 | 0.00 | 0.00 | 0.00 | 32 | 1014.9 |
| 20260507141903 | 65 | 139 | 0.9 | 2.6 | 0.00 | 0.00 | 0.00 | 34 | 1015.0 |
| 20260507141403 | 64 | 111 | 0.9 | 2.6 | 0.00 | 0.00 | 0.00 | 35 | 1015.0 |
| 20260507140903 | 63 | 128 | 1.7 | 2.6 | 0.00 | 0.00 | 0.00 | 34 | 1014.9 |
| 20260507135903 | 63 | 113 | 0.9 | 2.6 | 0.00 | 0.00 | 0.00 | 35 | 1014.9 |
| 20260507135403 | 63 | 131 | 0.9 | 2.6 | 0.00 | 0.00 | 0.00 | 36 | 1014.9 |
| 20260507134903 | 62 | 104 | 0.0 | 2.6 | 0.00 | 0.00 | 0.00 | 37 | 1014.8 |
| 20260507134403 | 62 | 81 | 0.9 | 2.6 | 0.00 | 0.00 | 0.00 | 37 | 1014.8 |
| 20260507133903 | 61 | 108 | 0.9 | 2.6 | 0.00 | 0.00 | 0.00 | 39 | 1014.9 |
| 20260507133403 | 60 | 95 | 0.9 | 1.7 | 0.00 | 0.00 | 0.00 | 40 | 1014.8 |
| 20260507132403 | 59 | 85 | 0.9 | 1.7 | 0.00 | 0.00 | 0.00 | 42 | 1014.6 |
| 20260507131403 | 57 | 99 | 0.0 | 1.7 | 0.00 | 0.00 | 0.00 | 47 | 1014.5 |
| 20260507130403 | 56 | 101 | 0.0 | 0.0 | 0.00 | 0.00 | 0.00 | 48 | 1014.4 |
| 20260507125903 | 57 | 101 | 0.0 | 0.0 | 0.00 | 0.00 | 0.00 | 47 | 1014.3 |
| 20260507125403 | 57 | 101 | 0.0 | 0.0 | 0.00 | 0.00 | 0.00 | 47 | 1014.3 |
| 20260507124903 | 57 | 101 | 0.0 | 0.9 | 0.00 | 0.00 | 0.00 | 46 | 1014.3 |
| 20260507124403 | 57 | 101 | 0.0 | 0.9 | 0.00 | 0.00 | 0.00 | 46 | 1014.3 |
| 20260507123403 | 57 | 101 | 0.0 | 0.9 | 0.00 | 0.00 | 0.00 | 45 | 1014.3 |
| 20260507122903 | 57 | 101 | 0.0 | 0.9 | 0.00 | 0.00 | 0.00 | 44 | 1014.2 |
| 20260507122404 | 58 | 101 | 0.0 | 0.9 | 0.00 | 0.00 | 0.00 | 44 | 1014.3 |
| 20260507121403 | 58 | 101 | 0.0 | 2.6 | 0.00 | 0.00 | 0.00 | 42 | 1014.2 |
| 20260507120903 | 59 | 107 | 0.0 | 2.6 | 0.00 | 0.00 | 0.00 | 41 | 1014.2 |
| 20260507115903 | 59 | 107 | 0.9 | 2.6 | 0.00 | 0.00 | 0.00 | 40 | 1014.2 |
| 20260507115404 | 59 | 115 | 0.9 | 4.3 | 0.00 | 0.00 | 0.00 | 40 | 1014.1 |
| 20260507114903 | 59 | 95 | 1.7 | 4.3 | 0.00 | 0.00 | 0.00 | 40 | 1014.1 |
| 20260507114403 | 59 | 161 | 1.7 | 4.3 | 0.00 | 0.00 | 0.00 | 41 | 1014.2 |
| 20260507113903 | 58 | 93 | 1.7 | 4.3 | 0.00 | 0.00 | 0.00 | 43 | 1014.2 |
| 20260507113403 | 57 | 114 | 0.9 | 1.7 | 0.00 | 0.00 | 0.00 | 46 | 1014.2 |
| 20260507112904 | 57 | 105 | 0.0 | 1.7 | 0.00 | 0.00 | 0.00 | 47 | 1014.2 |
| 20260507111904 | 57 | 90 | 0.0 | 2.6 | 0.00 | 0.00 | 0.00 | 48 | 1014.2 |
| 20260507111403 | 56 | 93 | 0.9 | 1.7 | 0.00 | 0.00 | 0.00 | 48 | 1014.2 |
| 20260507110403 | 57 | 325 | 0.0 | 0.9 | 0.00 | 0.00 | 0.00 | 48 | 1014.1 |
| 20260507105903 | 57 | 325 | 0.0 | 1.7 | 0.00 | 0.00 | 0.00 | 47 | 1014.1 |
| 20260507105403 | 57 | 325 | 0.0 | 1.7 | 0.00 | 0.00 | 0.00 | 47 | 1014.1 |
| 20260507104903 | 58 | 320 | 0.0 | 0.9 | 0.00 | 0.00 | 0.00 | 46 | 1014.1 |
| 20260507104403 | 57 | 320 | 0.0 | 0.9 | 0.00 | 0.00 | 0.00 | 46 | 1014.1 |
| 20260507103403 | 58 | 320 | 0.0 | 0.9 | 0.00 | 0.00 | 0.00 | 46 | 1014.2 |
| 20260507102903 | 58 | 320 | 0.0 | 0.9 | 0.00 | 0.00 | 0.00 | 45 | 1014.1 |
| 20260507101903 | 58 | 320 | 0.0 | 0.9 | 0.00 | 0.00 | 0.00 | 44 | 1014.2 |
| 20260507101403 | 59 | 320 | 0.0 | 0.9 | 0.00 | 0.00 | 0.00 | 43 | 1014.3 |
| 20260507100903 | 59 | 320 | 0.0 | 1.7 | 0.00 | 0.00 | 0.00 | 42 | 1014.3 |
| 20260507100403 | 59 | 321 | 0.0 | 1.7 | 0.00 | 0.00 | 0.00 | 41 | 1014.4 |
| 20260507095903 | 59 | 32 | 0.0 | 0.9 | 0.00 | 0.00 | 0.00 | 42 | 1014.3 |
| 20260507094903 | 59 | 35 | 0.0 | 0.9 | 0.00 | 0.00 | 0.00 | 42 | 1014.4 |
| 20260507094403 | 59 | 35 | 0.0 | 0.9 | 0.00 | 0.00 | 0.00 | 42 | 1014.5 |
| 20260507093903 | 60 | 35 | 0.0 | 0.9 | 0.00 | 0.00 | 0.00 | 41 | 1014.5 |
| 20260507093403 | 60 | 35 | 0.0 | 0.9 | 0.00 | 0.00 | 0.00 | 40 | 1014.4 |
| 20260507092903 | 60 | 30 | 0.0 | 0.9 | 0.00 | 0.00 | 0.00 | 40 | 1014.5 |
| 20260507090903 | 60 | 30 | 0.0 | 0.9 | 0.00 | 0.00 | 0.00 | 38 | 1014.5 |
| 20260507090403 | 60 | 30 | 0.0 | 0.9 | 0.00 | 0.00 | 0.00 | 38 | 1014.5 |
| 20260507085903 | 60 | 30 | 0.0 | 0.9 | 0.00 | 0.00 | 0.00 | 38 | 1014.5 |
| 20260507085403 | 60 | 30 | 0.0 | 0.9 | 0.00 | 0.00 | 0.00 | 38 | 1014.5 |
| 20260507084902 | 60 | 30 | 0.0 | 0.9 | 0.00 | 0.00 | 0.00 | 38 | 1014.5 |
| 20260507084403 | 60 | 30 | 0.0 | 0.0 | 0.00 | 0.00 | 0.00 | 40 | 1014.6 |
| 20260507083902 | 60 | 30 | 0.0 | 0.0 | 0.00 | 0.00 | 0.00 | 42 | 1014.6 |
| 20260507083404 | 60 | 30 | 0.0 | 0.0 | 0.00 | 0.00 | 0.00 | 42 | 1014.6 |
| 20260507082903 | 59 | 30 | 0.0 | 0.0 | 0.00 | 0.00 | 0.00 | 42 | 1014.7 |
| 20260507081903 | 60 | 30 | 0.0 | 0.0 | 0.00 | 0.00 | 0.00 | 42 | 1014.8 |
| 20260507081403 | 60 | 30 | 0.0 | 0.0 | 0.00 | 0.00 | 0.00 | 41 | 1014.8 |
| 20260507080903 | 60 | 30 | 0.0 | 0.9 | 0.00 | 0.00 | 0.00 | 41 | 1014.8 |
| 20260507075903 | 60 | 30 | 0.0 | 0.9 | 0.00 | 0.00 | 0.00 | 41 | 1014.7 |
| 20260507075403 | 60 | 30 | 0.0 | 0.0 | 0.00 | 0.00 | 0.00 | 41 | 1014.7 |
| 20260507074903 | 61 | 30 | 0.0 | 0.0 | 0.00 | 0.00 | 0.00 | 41 | 1014.7 |
| 20260507074403 | 61 | 30 | 0.0 | 0.0 | 0.00 | 0.00 | 0.00 | 40 | 1014.7 |
| 20260507073903 | 61 | 30 | 0.0 | 0.0 | 0.00 | 0.00 | 0.00 | 40 | 1014.9 |
| 20260507073403 | 61 | 30 | 0.0 | 0.9 | 0.00 | 0.00 | 0.00 | 40 | 1014.8 |
| 20260507072904 | 61 | 30 | 0.0 | 0.9 | 0.00 | 0.00 | 0.00 | 41 | 1014.9 |
| 20260507072403 | 61 | 30 | 0.0 | 0.9 | 0.00 | 0.00 | 0.00 | 41 | 1014.9 |
| 20260507071903 | 61 | 30 | 0.0 | 0.9 | 0.00 | 0.00 | 0.00 | 41 | 1014.8 |
| 20260507071403 | 61 | 30 | 0.0 | 0.0 | 0.00 | 0.00 | 0.00 | 42 | 1014.9 |
| 20260507070403 | 61 | 30 | 0.0 | 0.0 | 0.00 | 0.00 | 0.00 | 42 | 1014.9 |
| 20260507065903 | 62 | 30 | 0.0 | 1.7 | 0.00 | 0.00 | 0.00 | 39 | 1014.8 |
| 20260507065402 | 62 | 30 | 0.0 | 1.7 | 0.00 | 0.00 | 0.00 | 38 | 1014.9 |
| 20260507064903 | 62 | 30 | 0.0 | 1.7 | 0.00 | 0.00 | 0.00 | 38 | 1014.8 |
| 20260507064403 | 63 | 30 | 0.9 | 1.7 | 0.00 | 0.00 | 0.00 | 37 | 1014.9 |
| 20260507063903 | 63 | 30 | 0.9 | 1.7 | 0.00 | 0.00 | 0.00 | 36 | 1014.8 |
| 20260507062904 | 63 | 30 | 0.0 | 1.7 | 0.00 | 0.00 | 0.00 | 35 | 1014.7 |
| 20260507062403 | 64 | 45 | 0.0 | 1.7 | 0.00 | 0.00 | 0.00 | 34 | 1014.7 |
| 20260507061902 | 64 | 45 | 0.0 | 1.7 | 0.00 | 0.00 | 0.00 | 34 | 1014.7 |
| 20260507061404 | 64 | 36 | 0.0 | 1.7 | 0.00 | 0.00 | 0.00 | 33 | 1014.8 |
| 20260507060903 | 64 | 37 | 0.0 | 1.7 | 0.00 | 0.00 | 0.00 | 33 | 1014.7 |
| 20260507060404 | 64 | 37 | 0.0 | 1.7 | 0.00 | 0.00 | 0.00 | 33 | 1014.6 |
| 20260507055903 | 65 | 37 | 0.0 | 1.7 | 0.00 | 0.00 | 0.00 | 32 | 1014.7 |